Temp
64 58 53 58 57 58 57 53 50 55 59 56 54 53 59 57 58 56 57 57 59 63 64 64 65 64 63 61 60 59 60 59 59 58 58 58 58 58 59 59 62 62 63 63
59 53 61 66 62 59 56 51 50 55 60 54 52 53 52 55 56 57 58 56 56 58 61 63 63 62 61 60 58 59 59 59 59 57 57 58 57 57 58 58 60 61 62 62
53 59 67 64 59 59 51 51 50 52 55 54 52 48 49 56 57 58 57 59 58 55 54 56 59 58 60 60 59 58 58 58 58 59 57 57 56 56 56 56 57 59 61 62
55 64 63 59 58 56 47 58 57 54 48 42 51 37 45 49 52 54 53 53 54 57 58 58 57 56 56 57 59 58 58 58 59 59 58 58 56 55 55 54 55 57 59 61
55 58 57 56 56 60 54 59 54 52 45 41 45 39 43 48 48 50 52 54 54 54 55 57 58 60 59 61 59 58 58 58 59 59 57 56 55 54 55 54 55 55 55 59
58 64 61 58 62 61 61 54 48 43 40 34 41 40 38 43 46 50 52 54 56 55 55 56 56 57 57 58 59 63 65 65 64 64 62 57 55 55 54 54 54 54 54 56
56 56 60 64 55 57 53 41 29 32 29 32 43 40 41 49 52 52 50 52 54 55 55 55 55 57 59 60 60 61 61 60 62 64 64 62 59 56 55 54 54 53 52 53
45 45 56 62 53 48 47 42 31 27 26 34 42 36 39 51 54 55 55 52 54 53 53 54 57 58 58 58 56 57 56 57 59 60 59 57 56 56 55 54 53 52 52 53
43 47 57 60 59 54 48 39 44 36 33 29 35 40 47 51 53 53 52 52 51 51 52 53 56 55 54 55 54 54 54 55 56 55 57 58 57 55 54 53 52 52 52 56
49 40 53 57 57 55 50 51 36 32 26 26 32 36 37 43 45 48 47 47 48 50 51 52 52 52 52 53 53 53 52 52 52 53 53 54 54 54 53 52 53 52 51 53
48 41 46 51 46 42 44 41 40 37 33 27 26 30 43 41 43 45 46 47 47 47 48 49 51 52 53 53 52 52 53 52 52 52 52 52 52 53 52 51 51 51 51 51
46 40 35 43 49 52 50 43 41 27 31 33 30 33 47 45 47 46 47 48 48 48 48 49 51 50 51 51 52 53 52 52 53 53 52 52 52 51 50 50 50 50 49 50
48 34 25 36 44 47 44 46 44 38 32 30 24 31 48 46 45 46 45 46 47 48 50 52 52 52 50 50 53 56 54 54 58 56 52 51 50 49 48 48 49 49 49 49
51 37 37 31 39 42 40 44 45 39 23 30 31 36 42 43 43 45 47 47 47 49 49 52 51 47 49 54 54 53 53 55 54 52 51 49 48 49 49 49 48 49 49 49
46 38 39 42 45 45 44 44 44 40 39 32 36 36 42 41 42 45 46 46 49 50 50 50 49 52 53 52 51 51 51 52 51 51 51 48 48 50 51 49 48 48 48 49
42 37 38 39 47 46 43 44 43 43 42 39 40 38 42 45 44 45 47 48 48 48 50 50 52 52 50 49 48 50 49 48 50 50 49 50 50 49 48 48 48 47 47 47
41 37 34 32 42 41 33 40 41 41 43 39 32 38 41 44 45 45 45 47 46 47 50 50 49 49 49 48 49 47 47 48 48 48 49 50 51 50 50 50 50 47 47 44
39 37 35 32 34 25 38 45 46 45 44 44 41 41 42 42 46 46 47 46 47 48 48 47 47 47 47 48 48 48 48 47 46 47 48 50 50 50 51 50 50 50 45 42
44 39 33 28 28 37 39 42 37 34 37 43 40 42 45 46 42 46 47 45 46 47 45 47 47 47 47 47 48 46 46 46 45 45 47 48 49 49 49 48 48 49 48 41
45 41 34 30 25 25 35 45 49 43 27 42 42 42 42 40 36 42 50 48 46 46 47 46 46 47 46 46 47 44 44 44 43 45 46 47 48 48 48 48 47 48 43 45
35 33 31 28 26 33 42 46 48 31 32 42 42 42 40 37 41 46 46 45 45 45 46 46 46 44 45 46 45 43 43 42 45 46 46 46 47 47 47 47 45 45 45 45
34 27 26 27 25 26 47 45 34 38 41 42 41 42 40 43 43 44 44 42 42 44 45 45 44 43 45 46 44 43 42 45 46 46 46 46 47 48 49 47 46 46 45 45
31 36 30 33 32 41 45 44 46 43 41 41 41 45 41 40 42 43 40 42 43 44 43 44 43 43 45 46 45 42 44 46 46 45 45 45 46 46 47 45 45 45 46 46
40 41 36 37 41 43 45 46 45 45 44 45 46 42 41 39 41 39 41 42 42 43 42 43 43 42 42 45 45 45 46 47 45 44 44 45 45 45 46 47 47 46 47 47
41 41 38 37 41 42 46 46 45 47 46 45 44 42 41 39 40 41 41 42 42 42 42 43 42 42 42 44 45 47 48 47 44 45 45 45 45 45 44 42 41 47 48 47
41 40 34 34 43 41 42 46 47 45 45 44 41 40 40 39 38 41 41 42 42 42 42 42 42 42 43 45 47 48 48 47 45 45 45 44 45 46 45 44 43 40 40 40
MSLP
1012.07 1012.83 1013.49 1013.37 1013.19 1013.07 1013.26 1013.65 1013.92 1013.81 1013.84 1013.92 1014.68 1015.22 1015.63 1016.28 1015.94 1015.66 1015.31 1014.69 1013.72 1013.16 1012.68 1014.02 1015.45 1015.62 1016.00 1015.77 1014.85 1014.82 1014.83 1014.97 1014.92 1015.06 1015.25 1015.02 1015.11 1015.09 1015.29 1015.48 1015.47 1015.61 1015.38 1015.04
1013.01 1013.55 1013.62 1013.23 1013.13 1013.47 1013.63 1013.99 1014.29 1014.28 1014.16 1014.44 1015.16 1016.11 1017.04 1017.05 1017.00 1016.82 1016.39 1015.80 1015.31 1014.86 1014.54 1014.83 1015.13 1016.03 1016.51 1016.63 1016.37 1016.38 1016.24 1016.09 1015.90 1015.68 1015.42 1014.95 1015.38 1015.63 1015.58 1015.44 1015.52 1015.54 1015.37 1014.90
1013.74 1013.74 1013.49 1013.41 1013.45 1013.68 1014.17 1014.48 1014.72 1015.07 1015.08 1015.21 1015.58 1016.91 1017.55 1017.52 1017.63 1017.45 1017.20 1016.92 1016.54 1016.37 1016.28 1016.31 1016.29 1016.61 1016.61 1016.80 1017.06 1017.17 1017.07 1016.78 1016.60 1016.30 1015.88 1014.92 1015.47 1015.78 1016.10 1016.19 1015.89 1015.49 1015.38 1015.12
1014.04 1014.03 1013.81 1013.89 1014.27 1014.45 1014.74 1015.02 1015.31 1015.64 1016.15 1016.72 1016.75 1018.07 1017.92 1018.03 1018.25 1018.11 1018.14 1017.85 1017.68 1017.13 1016.51 1016.84 1017.24 1017.49 1017.56 1017.43 1017.27 1017.43 1017.15 1017.19 1017.34 1016.88 1016.42 1015.51 1016.06 1016.23 1016.03 1016.04 1016.23 1015.98 1015.19 1014.99
1015.01 1014.70 1014.56 1014.68 1015.00 1014.84 1015.38 1015.57 1016.16 1016.46 1017.36 1017.97 1018.11 1018.61 1018.38 1018.19 1018.32 1018.42 1018.51 1018.37 1018.24 1017.97 1017.90 1017.63 1016.86 1016.45 1016.79 1017.00 1017.15 1017.20 1017.18 1017.13 1016.67 1016.27 1015.91 1016.09 1016.32 1016.26 1015.88 1015.79 1015.79 1015.47 1015.05 1014.76
1014.83 1014.77 1015.06 1015.24 1015.31 1015.64 1015.89 1016.53 1017.42 1018.41 1019.09 1019.66 1019.30 1019.58 1019.11 1018.71 1018.74 1018.71 1018.85 1018.75 1018.70 1018.46 1018.19 1017.91 1017.66 1017.72 1017.07 1015.93 1015.65 1015.75 1015.95 1015.90 1015.31 1015.06 1014.87 1015.25 1015.72 1015.75 1016.00 1015.81 1015.84 1015.46 1015.01 1014.55
1015.51 1015.54 1015.50 1015.51 1015.99 1016.30 1017.09 1018.15 1019.71 1020.99 1021.55 1021.44 1020.20 1020.02 1019.32 1018.92 1018.92 1019.05 1019.12 1019.10 1019.14 1019.06 1018.92 1018.68 1018.43 1018.20 1017.92 1017.73 1017.09 1016.52 1016.08 1015.31 1014.71 1014.62 1014.46 1014.58 1014.63 1015.31 1015.29 1015.15 1015.56 1015.34 1015.28 1014.72
1017.13 1016.62 1016.53 1016.64 1017.02 1017.51 1018.24 1019.51 1021.34 1022.49 1023.17 1022.27 1020.91 1020.27 1020.09 1019.67 1019.52 1019.39 1019.43 1019.49 1019.48 1019.53 1019.33 1018.98 1018.72 1018.47 1018.12 1017.73 1017.12 1016.87 1016.53 1015.87 1015.26 1014.99 1014.91 1014.85 1014.71 1014.72 1014.77 1014.56 1014.76 1015.04 1014.97 1014.66
1018.25 1017.94 1017.29 1017.40 1017.52 1017.98 1019.03 1020.20 1021.37 1022.60 1023.54 1023.46 1022.03 1021.18 1020.79 1020.31 1020.16 1019.96 1020.19 1020.05 1020.16 1020.02 1019.72 1019.47 1019.13 1018.70 1018.19 1017.94 1017.50 1017.04 1016.74 1016.17 1015.56 1015.29 1014.85 1014.18 1013.96 1013.69 1013.91 1014.12 1014.46 1014.64 1014.71 1014.39
1018.93 1019.28 1018.72 1018.34 1018.31 1018.86 1019.55 1020.62 1021.87 1023.44 1024.61 1024.56 1022.98 1021.88 1021.05 1020.72 1020.51 1020.81 1020.70 1020.85 1020.67 1020.32 1020.02 1019.78 1019.36 1018.80 1018.21 1017.71 1017.38 1016.90 1016.61 1016.29 1015.85 1015.19 1014.69 1014.43 1014.11 1013.57 1013.57 1014.06 1014.28 1014.44 1014.12 1013.97
1019.46 1020.39 1020.22 1019.62 1019.99 1020.31 1020.60 1021.54 1022.92 1024.16 1025.06 1025.00 1024.01 1022.52 1021.42 1021.49 1021.88 1021.88 1021.46 1021.23 1021.02 1020.74 1020.16 1019.73 1019.16 1018.64 1017.91 1017.20 1016.85 1016.55 1016.21 1015.97 1015.55 1015.13 1014.66 1014.34 1013.91 1013.72 1013.80 1013.89 1013.96 1013.85 1013.67 1013.37
1020.26 1021.44 1021.89 1021.45 1020.94 1020.76 1020.98 1021.88 1023.09 1024.76 1025.20 1025.09 1024.62 1022.64 1021.73 1021.83 1021.95 1022.07 1021.85 1021.47 1020.94 1020.38 1019.97 1019.51 1018.75 1018.29 1017.75 1017.19 1016.59 1016.11 1015.85 1015.52 1015.13 1014.74 1014.22 1013.93 1013.64 1013.43 1013.39 1013.33 1013.21 1013.01 1012.75 1012.39
1020.44 1022.20 1022.74 1022.31 1021.91 1021.42 1021.49 1021.99 1022.81 1024.02 1024.95 1025.15 1024.95 1023.04 1021.98 1021.90 1021.90 1021.85 1021.69 1021.15 1020.70 1020.18 1019.64 1018.94 1018.44 1017.83 1017.47 1017.15 1016.52 1015.86 1015.38 1014.86 1014.34 1013.89 1013.48 1013.26 1013.06 1012.98 1012.89 1012.71 1012.47 1012.30 1012.14 1011.90
1020.43 1022.35 1022.91 1023.04 1022.45 1022.15 1022.24 1022.22 1022.55 1023.45 1024.59 1024.71 1024.28 1022.96 1022.18 1022.05 1022.02 1021.61 1021.32 1020.86 1020.36 1019.82 1019.23 1018.50 1017.88 1017.40 1016.90 1016.34 1015.74 1015.36 1014.90 1014.43 1013.64 1013.20 1012.84 1012.56 1012.32 1012.23 1012.06 1011.80 1011.62 1011.53 1011.36 1011.12
1021.38 1022.68 1022.97 1022.73 1022.43 1022.26 1022.05 1022.02 1022.38 1023.01 1023.46 1024.15 1023.69 1023.38 1022.48 1022.44 1022.25 1021.64 1021.14 1020.49 1019.80 1019.11 1018.40 1017.66 1016.99 1016.45 1016.04 1015.72 1015.40 1015.07 1014.42 1013.77 1013.18 1012.62 1012.28 1011.89 1011.66 1011.39 1011.06 1010.96 1010.79 1010.63 1010.46 1010.22
1022.15 1022.84 1023.28 1023.16 1022.50 1022.24 1022.08 1021.88 1022.24 1022.63 1022.98 1023.42 1023.35 1022.88 1022.52 1022.39 1021.97 1021.50 1020.78 1020.01 1019.24 1018.46 1017.70 1017.13 1016.53 1016.08 1015.78 1015.41 1015.09 1014.54 1014.09 1013.57 1012.84 1012.08 1011.60 1011.17 1010.77 1010.42 1010.16 1009.94 1009.74 1009.58 1009.48 1009.44
1022.63 1023.42 1024.04 1023.72 1023.06 1022.85 1022.39 1021.90 1022.22 1022.61 1022.87 1023.23 1023.40 1023.03 1022.74 1022.16 1021.63 1021.14 1020.27 1019.60 1018.79 1018.04 1017.23 1016.68 1016.23 1015.83 1015.30 1014.97 1014.63 1014.00 1013.37 1012.76 1012.14 1011.48 1010.89 1010.46 1009.97 1009.52 1009.25 1008.99 1008.87 1008.80 1008.68 1008.67
1022.66 1023.61 1024.21 1024.45 1023.96 1023.62 1022.37 1022.17 1022.32 1022.71 1022.79 1022.83 1023.02 1022.98 1022.55 1022.02 1021.08 1020.69 1019.89 1019.11 1018.32 1017.71 1017.05 1016.54 1016.06 1015.49 1015.11 1014.44 1013.82 1013.23 1012.62 1012.04 1011.57 1010.89 1010.30 1009.80 1009.18 1008.81 1008.56 1008.30 1008.16 1008.10 1008.06 1008.08
1022.29 1023.55 1024.72 1025.15 1024.93 1023.56 1022.92 1022.60 1022.73 1023.12 1022.67 1022.36 1022.81 1022.49 1022.02 1021.34 1020.86 1019.76 1019.00 1018.68 1018.24 1017.60 1016.99 1016.41 1015.85 1015.19 1014.31 1013.63 1013.07 1012.54 1011.83 1011.26 1010.69 1010.04 1009.54 1009.04 1008.65 1008.21 1007.94 1007.79 1007.62 1007.44 1007.40 1007.32
1022.90 1023.76 1024.91 1025.73 1025.66 1024.39 1023.10 1022.68 1022.53 1023.16 1022.99 1022.49 1022.60 1022.36 1022.01 1021.44 1020.67 1018.56 1018.15 1018.17 1017.80 1017.37 1016.76 1016.01 1015.39 1014.58 1013.78 1012.98 1012.43 1011.85 1011.09 1010.50 1009.90 1009.38 1008.80 1008.40 1008.02 1007.61 1007.32 1007.18 1007.03 1006.82 1006.79 1006.56
1023.75 1024.91 1025.61 1025.92 1025.48 1023.97 1023.08 1022.71 1022.64 1023.29 1023.09 1022.43 1022.33 1022.17 1021.86 1021.66 1020.73 1019.11 1018.58 1017.89 1017.64 1016.95 1016.17 1015.55 1014.80 1014.01 1013.14 1012.29 1011.68 1011.01 1010.32 1009.67 1009.17 1008.75 1008.26 1007.86 1007.46 1007.15 1006.84 1006.63 1006.46 1006.40 1006.21 1005.96
1024.29 1025.18 1025.73 1025.98 1025.43 1023.89 1022.74 1022.77 1023.03 1022.73 1022.28 1022.19 1021.97 1021.53 1021.28 1020.82 1020.12 1019.41 1018.60 1018.07 1017.42 1016.44 1015.58 1014.96 1014.08 1013.19 1012.28 1011.45 1010.83 1010.05 1009.34 1008.69 1008.39 1008.10 1007.73 1007.34 1007.06 1006.68 1006.39 1006.15 1005.88 1005.79 1005.65 1005.36
1024.17 1024.18 1024.66 1025.39 1024.06 1022.91 1022.42 1022.32 1021.79 1021.90 1022.16 1021.94 1021.65 1021.08 1021.06 1020.73 1019.96 1019.20 1018.51 1017.76 1016.91 1016.15 1015.23 1014.35 1013.49 1012.38 1011.45 1010.55 1009.90 1009.16 1008.20 1007.95 1007.70 1007.55 1007.29 1006.94 1006.63 1006.32 1006.09 1005.75 1005.43 1005.20 1005.02 1004.63
1023.35 1023.44 1023.91 1024.20 1022.92 1022.28 1021.91 1021.59 1021.34 1021.39 1021.50 1021.16 1021.12 1020.99 1020.80 1020.66 1019.80 1019.07 1018.26 1017.31 1016.47 1015.64 1014.66 1013.70 1012.77 1011.82 1010.74 1009.69 1008.90 1008.14 1007.41 1007.18 1007.12 1007.05 1006.87 1006.55 1006.32 1006.02 1005.55 1005.21 1004.73 1004.68 1004.63 1004.43
1023.12 1023.26 1023.18 1023.23 1022.49 1022.00 1021.50 1021.16 1021.01 1020.85 1020.81 1020.87 1020.85 1020.80 1020.66 1020.40 1019.59 1018.98 1017.86 1016.87 1016.09 1015.17 1014.20 1013.27 1012.29 1011.31 1010.20 1009.13 1008.15 1007.11 1006.55 1006.59 1006.64 1006.62 1006.47 1006.26 1006.07 1005.81 1005.68 1005.52 1005.16 1004.77 1004.67 1004.60
1022.37 1022.26 1022.60 1022.00 1021.46 1021.65 1021.19 1020.43 1020.46 1020.51 1020.54 1020.57 1020.70 1020.57 1020.28 1020.10 1019.40 1018.52 1017.54 1016.70 1015.78 1014.72 1013.77 1012.81 1011.80 1010.84 1009.73 1008.63 1007.51 1006.75 1006.30 1006.24 1006.23 1006.28 1006.22 1006.10 1005.92 1005.78 1005.77 1005.66 1005.78 1005.56 1005.44 1005.27
Wind_Speed
5 9 5 10 4 2 3 3 1 2 0 1 4 4 10 7 13 15 14 15 13 9 4 9 12 11 12 12 7 5 6 2 2 2 1 3 2 2 2 3 3 3 3 5
8 4 3 7 2 4 4 3 3 4 4 2 4 5 5 7 7 10 14 14 15 12 13 10 10 8 7 6 6 4 3 1 2 1 2 3 2 2 2 2 3 4 4 4
3 4 4 2 2 4 2 3 3 5 4 3 4 4 3 3 5 9 12 10 13 14 11 12 13 9 7 7 6 6 6 6 5 3 1 3 2 3 1 2 3 4 5 5
1 7 7 8 6 1 2 3 2 2 4 1 4 5 2 1 6 8 9 10 10 11 14 12 10 8 6 6 6 6 6 7 6 7 6 5 1 1 3 3 1 4 3 3
2 6 6 10 3 3 3 3 4 1 4 3 5 4 5 4 6 7 7 7 8 8 7 7 7 12 8 6 4 2 2 3 4 3 1 2 5 3 3 2 4 3 2 3
4 3 5 1 2 3 5 4 6 5 4 4 3 4 5 1 2 3 3 3 4 6 6 4 3 8 6 4 9 10 9 8 8 8 6 5 7 7 5 4 4 4 3 3
5 2 3 5 6 6 9 7 5 7 7 5 4 2 6 5 2 2 2 4 4 3 3 4 4 5 5 7 8 7 8 8 7 8 8 8 6 7 9 6 4 4 3 2
3 7 5 6 2 4 4 5 6 3 2 7 7 5 1 3 6 6 4 3 5 5 4 6 8 6 6 7 8 8 8 10 10 9 9 6 8 6 6 5 3 3 3 3
3 5 3 7 4 4 6 4 2 2 2 2 4 3 4 2 4 6 6 7 8 7 7 8 9 8 8 8 9 8 9 10 9 9 9 11 8 6 5 4 3 3 3 3
5 2 4 5 4 6 6 2 6 5 3 5 5 5 4 7 10 7 7 5 7 8 9 8 8 8 7 7 7 6 6 7 8 7 5 6 7 3 1 3 3 4 4 4
4 4 7 4 5 2 6 5 5 3 4 4 4 6 2 1 3 6 7 8 8 8 8 8 8 8 9 8 6 6 5 7 7 7 6 6 5 4 4 4 4 5 5 7
2 5 2 6 3 5 5 1 4 5 7 4 3 9 3 3 2 4 7 8 9 8 8 9 11 8 8 8 8 8 7 8 8 9 8 8 7 7 7 6 7 7 7 7
6 2 3 8 7 4 4 3 3 3 3 5 4 7 5 1 5 6 8 9 9 9 13 12 11 10 7 7 12 16 12 11 17 16 10 9 8 7 7 7 7 7 8 8
8 3 8 7 8 3 4 5 4 4 3 3 6 9 9 8 8 10 12 11 11 13 13 13 12 8 8 14 15 13 13 17 16 13 11 11 9 9 8 9 8 9 10 10
5 4 4 5 6 3 7 6 4 6 5 5 6 8 10 6 10 12 11 10 16 17 16 14 11 13 17 16 16 17 16 13 11 11 12 9 8 10 12 11 10 10 9 9
2 2 4 3 5 5 6 5 5 3 2 6 8 12 1 7 8 11 15 17 18 18 18 16 17 21 20 17 16 15 15 17 16 14 13 14 13 12 12 12 11 10 9 8
2 4 3 5 3 5 7 5 3 3 3 5 6 5 5 15 14 13 16 18 18 18 20 21 21 20 17 15 16 17 17 17 16 16 15 14 14 14 11 12 11 11 9 7
4 4 3 3 4 2 4 2 1 4 9 8 3 7 9 11 15 12 15 16 16 19 21 18 18 17 17 18 16 16 15 12 15 16 15 16 14 12 12 10 8 8 6 7
4 4 0 1 3 5 1 1 2 2 14 6 5 9 13 13 8 14 9 5 15 19 16 17 16 19 19 18 17 15 15 15 14 14 14 14 13 12 10 9 10 8 8 6
6 6 5 2 1 5 3 4 4 4 6 6 5 9 13 10 14 17 18 18 17 17 16 17 18 19 17 18 16 15 16 14 14 13 13 12 12 12 9 10 10 10 6 9
3 3 3 2 4 7 3 5 3 2 8 4 4 11 12 8 9 19 18 18 17 17 19 17 18 16 17 17 15 15 15 15 13 12 11 11 11 10 10 9 8 8 7 7
5 4 3 2 2 6 4 2 5 9 5 7 8 9 9 12 14 17 18 17 18 20 19 19 17 16 17 17 13 14 15 14 11 11 10 10 9 7 7 8 7 7 7 8
1 7 5 9 8 5 5 8 8 4 6 7 6 10 6 11 16 19 17 21 18 19 17 17 16 17 16 16 13 13 15 12 9 9 8 8 8 7 7 8 8 6 6 7
3 4 4 3 4 7 6 6 6 4 7 8 7 7 7 11 17 16 17 16 17 16 17 16 16 17 17 16 15 15 13 9 8 7 7 6 5 7 7 5 6 5 4 2
6 4 4 5 7 6 8 8 5 8 7 7 7 7 9 10 15 14 16 18 16 16 16 15 15 15 17 17 16 15 9 5 6 6 6 5 4 6 2 4 5 3 3 2
6 7 5 7 8 6 8 7 5 7 6 7 7 8 7 6 13 15 16 15 16 16 15 15 16 15 16 16 14 10 4 4 5 4 3 3 4 1 2 2 3 15 13 12
Wind_Direction
8 64 10 303 248 186 108 90 107 253 294 146 43 294 15 13 30 18 13 357 337 281 300 55 30 24 8 4 53 109 122 138 102 61 90 66 70 49 39 39 61 69 5 356
20 83 344 323 60 120 72 93 342 297 323 96 8 57 98 16 15 28 25 20 16 35 47 57 74 47 30 25 13 4 18 56 348 320 253 111 125 3 335 1 348 24 10 355
126 274 339 63 348 27 95 118 229 224 328 2 46 28 34 15 28 31 26 39 50 47 49 38 43 29 39 39 16 5 343 342 315 301 290 72 71 80 17 347 322 352 354 352
29 330 4 48 59 23 38 327 268 247 74 283 45 266 298 330 3 38 20 25 16 46 88 75 66 57 50 30 58 37 18 351 314 332 330 35 349 292 218 174 250 305 339 325
345 26 35 49 332 8 256 1 333 15 98 87 347 76 251 2 9 5 22 20 20 26 16 25 117 135 133 112 80 53 342 264 270 287 7 345 310 284 304 314 298 311 283 264
156 182 55 276 355 24 304 341 40 48 72 45 274 103 290 303 357 347 47 57 31 13 15 19 353 343 322 189 171 186 188 232 235 253 279 239 249 254 267 269 287 297 305 304
347 18 352 27 22 350 38 46 354 6 11 224 263 338 245 355 47 12 102 54 46 1 327 285 302 330 318 329 320 314 300 276 276 273 256 256 243 257 240 239 240 252 277 282
74 327 27 334 67 253 15 100 138 291 227 251 317 252 93 77 26 357 25 37 29 7 319 326 325 323 318 323 317 304 309 317 323 324 309 272 238 228 243 233 246 249 241 256
100 289 346 39 348 69 324 27 219 142 341 41 270 102 276 2 12 6 337 18 359 348 350 342 324 318 322 314 305 305 304 295 291 287 289 288 278 245 241 257 223 214 233 254
202 302 18 313 59 17 91 268 22 8 356 305 293 289 256 344 355 343 6 19 348 348 347 340 324 302 283 277 288 305 315 296 297 305 325 314 307 300 249 189 194 218 246 251
93 111 296 18 51 324 3 19 40 111 149 218 297 258 204 272 358 345 342 335 322 310 301 294 285 286 292 303 310 296 299 282 285 285 279 279 285 294 277 255 248 235 233 243
67 129 239 258 251 253 137 227 115 114 279 237 216 274 154 145 4 323 308 300 293 285 290 288 293 273 279 285 301 297 284 271 274 265 254 254 256 248 244 243 242 245 249 252
177 9 13 352 354 339 59 274 201 143 71 222 161 262 176 269 313 292 291 290 284 285 295 291 295 287 285 288 299 294 284 283 291 274 258 260 255 252 251 247 246 247 247 247
88 133 158 190 220 165 277 256 276 162 131 235 239 286 299 316 316 316 311 290 291 297 291 297 288 269 269 291 300 291 290 294 277 261 258 257 261 261 260 259 251 251 246 250
98 197 201 245 253 244 248 269 219 222 212 187 262 261 284 303 305 302 295 285 303 305 296 285 275 288 304 311 310 306 296 298 281 276 274 257 254 259 270 260 253 249 241 249
20 251 170 277 265 277 281 229 232 233 212 267 265 284 38 294 285 299 307 303 304 295 297 295 298 312 312 308 306 298 304 294 290 286 279 280 275 267 254 257 257 251 249 243
140 128 88 262 337 328 302 210 203 278 267 247 273 270 300 313 309 305 303 299 292 296 305 310 313 309 305 308 302 297 291 289 286 279 277 273 274 268 257 262 258 251 245 240
139 115 137 263 358 243 244 60 320 257 269 280 292 290 282 275 292 303 286 284 297 309 311 312 312 310 307 300 296 296 293 299 290 287 285 282 278 277 277 271 254 267 258 243
139 119 337 151 207 284 216 289 289 143 291 203 242 300 308 300 294 295 274 270 301 311 311 308 308 303 301 299 299 293 290 288 285 283 283 281 282 280 275 274 275 271 279 264
79 73 115 91 261 267 222 281 285 113 292 215 242 296 300 323 315 311 327 320 313 311 301 307 303 298 297 297 297 291 287 288 284 285 285 282 279 275 267 273 268 272 258 264
8 15 184 186 244 283 234 268 277 41 270 268 274 292 289 282 265 298 309 308 312 304 309 308 303 298 296 295 295 287 285 281 282 283 282 280 280 277 274 266 266 264 261 270
172 148 218 58 271 293 203 285 129 224 286 269 288 269 272 289 297 300 306 310 308 310 312 307 303 299 298 296 294 285 282 283 282 279 279 279 281 275 281 278 272 266 270 270
266 179 192 171 219 232 230 216 248 207 252 269 252 284 283 295 303 308 309 312 312 312 309 307 303 302 303 301 297 286 281 286 281 279 278 278 281 277 271 263 262 265 256 256
274 155 195 70 262 239 250 278 245 220 238 266 276 284 290 296 307 309 309 309 315 313 310 309 310 308 306 306 303 291 283 276 272 273 275 278 284 293 286 282 247 231 242 174
206 135 201 260 283 294 282 258 261 276 266 290 290 274 285 296 308 307 309 316 313 311 313 314 309 308 305 307 305 300 294 253 256 264 270 281 287 294 64 30 -0 18 34 93
182 192 158 232 242 195 249 268 271 265 276 274 272 299 291 295 305 312 310 313 311 312 315 311 313 312 310 312 310 319 304 245 236 253 278 302 290 77 60 27 65 42 44 51